Home > Time Zones > World Clock > Weather > Qatar > Doha > Past weeks

Flag for Qatar Weather past 2 weeks in Doha, Qatar

Now
95 °F

Sunny.


Feels Like: 101 °F
Forecast: 84 / 100 °F
Wind: 10 mph from Northeast

Location: Doha International Airport

Current Time: Oct 2, 2014 at 4:27:19 PM

Latest Report: Oct 2, 2014 at 4:00 PM


Visibility: 10 mi

Pressure: 29.83 "Hg

Humidity: 44%

Dew point: 70 °F

Location of DohaLocation

Historic Weather in Doha — Graph

°F

Doha temperature yesterday

Maximum temperature yesterday: 95 °F (at 11:00 AM)
Minimum temperature yesterday: 86 °F (at 4:00 AM)
Average temperature yesterday: 91 °F

Past Weeks' High & Low Weather Summary

 TemperatureHumidityPressure
High108 °F (Sep 24, 11:30 AM)84% (Sep 23, 2:00 AM)29.92 "Hg (Sep 23, 2:00 AM)
Low84 °F (Sep 21, 5:30 AM)12% (Sep 20, 1:00 PM)29.59 "Hg (Sep 17, 3:00 PM)
Average92 °F57%29.77 "Hg
* Reported Sep 17 3:00 PM — Oct 2 3:00 PM, Doha, Weather by CustomWeather, © 2014

Note: Actual official high and low records may vary slightly from our data, if they occured in-between our weather recording intervals... More about our weather records

Advertising

Doha weather history for previous 24 hours

 ConditionsComfort  
Time TempWeatherWind HumidityBarometerVisibility
3:00 PM
Oct 2
95 °FPassing clouds.8 mph56%29.83 "HgN/A
2:00 PM97 °FSunny.9 mph50%29.83 "Hg10 mi
1:30 PM97 °FSunny.12 mph53%29.83 "Hg10 mi
1:00 PM99 °FPassing clouds.12 mph50%29.86 "HgN/A
12:30 PM99 °FPassing clouds.12 mph39%29.86 "HgN/A
12:00 PM97 °FPassing clouds.13 mph53%29.86 "HgN/A
11:00 AM99 °FPassing clouds.9 mph57%29.89 "HgN/A
10:30 AM99 °FPassing clouds.3 mph44%29.89 "HgN/A
10:00 AM99 °FPassing clouds.6 mph42%29.92 "HgN/A
9:30 AM97 °FPassing clouds.5 mph50%29.92 "HgN/A
9:00 AM95 °FPassing clouds.5 mph50%29.92 "HgN/A
8:30 AM93 °FPassing clouds.5 mph56%29.92 "HgN/A
8:00 AM93 °FSunny.5 mph59%29.92 "Hg10 mi
7:30 AM91 °FSunny.2 mph67%29.92 "Hg10 mi
7:00 AM88 °FSunny.No wind70%29.89 "Hg10 mi
6:30 AM84 °FSunny.No wind79%29.89 "Hg10 mi
6:00 AM84 °FClear.No wind74%29.89 "Hg6 mi
5:30 AM84 °FClear.1 mph70%29.86 "Hg6 mi
5:00 AM86 °FClear.No wind75%29.86 "Hg10 mi
4:00 AM86 °FClear.No wind75%29.86 "Hg10 mi
3:30 AM86 °FClear.No wind75%29.83 "Hg10 mi
2:00 AM86 °FClear.2 mph70%29.83 "Hg10 mi
1:00 AM86 °FClear.3 mph66%29.83 "Hg10 mi
12:00 AM88 °FClear.3 mph66%29.83 "Hg10 mi
11:00 PM
Oct 1
88 °FClear.5 mph62%29.86 "Hg10 mi
10:00 PM90 °FClear.6 mph59%29.86 "Hg10 mi
9:00 PM90 °FClear.6 mph59%29.89 "Hg10 mi
8:30 PM90 °FClear.7 mph59%29.89 "Hg10 mi
8:00 PM91 °FPassing clouds.6 mph56%29.86 "HgN/A
7:30 PM91 °FClear.7 mph59%29.86 "Hg10 mi
7:00 PM91 °FClear.7 mph59%29.86 "Hg10 mi
6:30 PM91 °FClear.7 mph63%29.86 "Hg10 mi
6:00 PM91 °FClear.9 mph63%29.83 "Hg10 mi
5:30 PM91 °FClear.12 mph63%29.83 "Hg10 mi
5:00 PM91 °FPassing clouds.12 mph67%29.83 "HgN/A
4:00 PM93 °FExtremely hot.12 mph59%29.83 "HgN/A
Weather by CustomWeather, © 2014

See weather overviewHow to use our weather pages